Weather History for South St. Paul, MN

Change the Weather History Date:

Sunday, December 4, 2011

  Actual Average (KMSP) Record (KMSP)
Temperature  
Mean Temperature 28 °F 24 °F  
Max Temperature 30 °F 31 °F 56 °F (1941)
Min Temperature 26 °F 16 °F -15 °F (1886)
Degree Days  
Heating Degree Days 37 41  
Month to date heating degree days 162  
Since 1 July heating degree days 1781  
Cooling Degree Days 0 0  
Month to date cooling degree days 0  
Year to date cooling degree days 753  
Moisture  
Dew Point 22 °F    
Average Humidity 80    
Maximum Humidity 91    
Minimum Humidity 75    
Precipitation  
Precipitation 0.00 in 0.05 in 0.58 in (1877)
Month to date precipitation 0.18  
Year to date precipitation 29.63  
Snow  
Snow 0.00 in 0.40 in 4.20 in (1947)
Month to date snowfall 1.6  
Since 1 July snowfall 11.5  
Snow Depth -    
Sea Level Pressure  
Sea Level Pressure 30.09 in    
Wind  
Wind Speed 7 mph (NW)    
Max Wind Speed 10 mph    
Max Gust Speed -    
Visibility 9 miles    
Events      
T = Trace of Precipitation, MM = Missing Value Source: NWS Daily Summary

Daily Weather History Graph

Daily Weather History Graph

Search for Another Location

Airport:

Trip Planner

Search our weather history database for the weather conditions in past years. The results will help you decide how hot, cold, wet, or windy it might be!

Date:

Astronomy

Dec. 04, 2011 Rise Set
Actual Time 7:32 AM CST 4:31 PM CST
Civil Twilight 6:59 AM CST 5:04 PM CST
Nautical Twilight 6:22 AM CST 5:41 PM CST
Astronomical Twilight 5:47 AM CST 6:16 PM CST
Moon 1:12 PM CST (12/4) 1:47 AM CST (12/4)
Length of Visible Light 10h 05m
Length of Day
8h 58m
Waxing Gibbous, 72% of the Moon is Illuminated
Dec 4
Waxing Gibbous
Dec 10
Full
Dec 17
Last Quarter
Dec 24
New
Jan 1
First Quarter

Hourly Weather History & Observations

Time (CST) Temp. Windchill Dew Point Humidity Pressure Visibility Wind Dir Wind Speed Gust Speed Precip Events Conditions
12:14 AM 30.7 °F 24.9 °F 28.4 °F 91% 29.94 in 3.0 mi NW 5.8 mph - N/A   Unknown
12:54 AM 30.2 °F 24.3 °F 27.9 °F 91% 29.92 in 3.0 mi NNW 5.8 mph - N/A   Unknown
1:14 AM 30.0 °F 24.1 °F 27.5 °F 90% 29.93 in 5.0 mi NNW 5.8 mph - N/A   Unknown
1:54 AM 29.7 °F 23.7 °F 27.3 °F 91% 29.93 in 5.0 mi NW 5.8 mph - N/A   Unknown
2:33 AM 29.7 °F 23.7 °F 27.1 °F 90% 29.95 in 7.0 mi NW 5.8 mph - N/A   Unknown
2:54 AM 30.0 °F 24.1 °F 27.1 °F 89% 29.96 in 7.0 mi NW 5.8 mph - N/A   Unknown
3:14 AM 30.2 °F 23.4 °F 27.1 °F 88% 29.97 in 10.0 mi NW 6.9 mph - N/A   Unknown
3:34 AM 30.2 °F 23.4 °F 26.6 °F 86% 29.97 in 10.0 mi NNW 6.9 mph - N/A   Unknown
3:54 AM 29.8 °F 21.5 °F 26.4 °F 87% 29.97 in 7.0 mi NNW 9.2 mph - N/A   Unknown
4:13 AM 29.8 °F 22.2 °F 26.4 °F 87% 29.97 in 7.0 mi NNW 8.1 mph - N/A   Unknown
4:34 AM 29.7 °F 22.0 °F 25.7 °F 85% 29.98 in 10.0 mi NNW 8.1 mph - N/A   Unknown
4:54 AM 29.7 °F 21.3 °F 24.8 °F 82% 29.97 in 10.0 mi NNW 9.2 mph - N/A   Unknown
5:14 AM 29.3 °F 20.2 °F 25.0 °F 84% 29.97 in 10.0 mi NNW 10.4 mph - N/A   Unknown
5:34 AM 29.3 °F 21.5 °F 24.6 °F 83% 29.98 in 10.0 mi NNW 8.1 mph - N/A   Unknown
5:54 AM 29.1 °F 24.1 °F 24.4 °F 83% 30.00 in 10.0 mi NW 4.6 mph - N/A   Unknown
6:14 AM 28.4 °F 20.4 °F 23.5 °F 82% 30.01 in 10.0 mi NNW 8.1 mph - N/A   Unknown
6:34 AM 28.4 °F 20.4 °F 23.0 °F 80% 30.01 in 10.0 mi NNW 8.1 mph - N/A   Unknown
6:54 AM 28.4 °F 23.3 °F 23.0 °F 80% 30.03 in 10.0 mi NW 4.6 mph - N/A   Unknown
7:14 AM 28.2 °F 22.0 °F 23.0 °F 81% 30.04 in 10.0 mi WNW 5.8 mph - N/A   Unknown
7:34 AM 27.5 °F 19.3 °F 22.1 °F 80% 30.05 in 10.0 mi NW 8.1 mph - N/A   Unknown
7:54 AM 27.1 °F 18.9 °F 21.2 °F 78% 30.07 in 10.0 mi NW 8.1 mph - N/A   Unknown
8:14 AM 27.0 °F 20.5 °F 20.7 °F 77% 30.07 in 10.0 mi NW 5.8 mph - N/A   Unknown
8:34 AM 26.6 °F 17.5 °F 20.1 °F 77% 30.08 in 10.0 mi NW 9.2 mph - N/A   Unknown
8:54 AM 26.6 °F 20.0 °F 19.9 °F 76% 30.09 in 10.0 mi NW 5.8 mph - N/A   Unknown
9:14 AM 26.6 °F 17.5 °F 20.1 °F 77% 30.10 in 10.0 mi NW 9.2 mph - N/A   Unknown
9:34 AM 26.6 °F 20.0 °F 20.1 °F 77% 30.10 in 10.0 mi NW 5.8 mph - N/A   Unknown
9:54 AM 26.6 °F 20.0 °F 20.1 °F 77% 30.12 in 10.0 mi NW 5.8 mph - N/A   Unknown
10:13 AM 26.6 °F 19.1 °F 19.9 °F 76% 30.12 in 10.0 mi NW 6.9 mph - N/A   Unknown
10:34 AM 26.6 °F 18.2 °F 20.1 °F 77% 30.12 in 10.0 mi NW 8.1 mph - N/A   Unknown
10:54 AM 26.6 °F 18.2 °F 20.3 °F 77% 30.13 in 10.0 mi NW 8.1 mph - N/A   Unknown
11:13 AM 26.6 °F 18.2 °F 20.3 °F 77% 30.14 in 10.0 mi NNW 8.1 mph - N/A   Unknown
11:34 AM 26.6 °F 19.1 °F 20.1 °F 77% 30.14 in 10.0 mi NW 6.9 mph - N/A   Unknown
11:54 AM 26.6 °F 19.1 °F 20.3 °F 77% 30.14 in 10.0 mi NNW 6.9 mph - N/A   Unknown
12:14 PM 26.6 °F 18.2 °F 20.3 °F 77% 30.14 in 10.0 mi NW 8.1 mph - N/A   Unknown
12:34 PM 26.6 °F 19.1 °F 20.3 °F 77% 30.14 in 10.0 mi NW 6.9 mph - N/A   Unknown
12:54 PM 27.0 °F 18.7 °F 20.3 °F 76% 30.14 in 10.0 mi NW 8.1 mph - N/A   Unknown
1:14 PM 27.1 °F 18.9 °F 20.7 °F 77% 30.14 in 10.0 mi NW 8.1 mph - N/A   Unknown
1:34 PM 27.1 °F 20.7 °F 20.7 °F 77% 30.14 in 10.0 mi WNW 5.8 mph - N/A   Unknown
1:54 PM 26.8 °F 18.5 °F 20.5 °F 77% 30.15 in 10.0 mi NW 8.1 mph - N/A   Unknown
2:14 PM 26.4 °F 17.3 °F 20.1 °F 77% 30.15 in 10.0 mi WNW 9.2 mph - N/A   Unknown
2:34 PM 26.2 °F 17.1 °F 20.1 °F 78% 30.15 in 10.0 mi NW 9.2 mph - N/A   Unknown
2:54 PM 26.2 °F 17.8 °F 20.1 °F 78% 30.16 in 10.0 mi NNW 8.1 mph - N/A   Unknown
3:13 PM 26.4 °F 18.9 °F 20.1 °F 77% 30.17 in 10.0 mi NW 6.9 mph - N/A   Unknown
3:34 PM 26.4 °F 18.9 °F 20.1 °F 77% 30.18 in 10.0 mi NW 6.9 mph - N/A   Unknown
3:54 PM 26.4 °F 18.9 °F 19.6 °F 75% 30.19 in 10.0 mi NW 6.9 mph - N/A   Unknown
4:14 PM 26.4 °F 19.8 °F 19.6 °F 75% 30.20 in 10.0 mi NW 5.8 mph - N/A   Unknown
4:34 PM 26.4 °F 18.0 °F 19.9 °F 77% 30.22 in 10.0 mi NW 8.1 mph - N/A   Unknown
4:54 PM 26.4 °F 19.8 °F 19.8 °F 76% 30.22 in 10.0 mi NNW 5.8 mph - N/A   Unknown
5:14 PM 26.2 °F 20.7 °F 19.8 °F 76% 30.23 in 10.0 mi NNW 4.6 mph - N/A   Unknown
5:34 PM 26.2 °F 19.6 °F 19.9 °F 77% 30.24 in 10.0 mi NW 5.8 mph - N/A   Unknown
5:54 PM 26.4 °F 18.9 °F 19.9 °F 77% 30.25 in 10.0 mi NNW 6.9 mph - N/A   Unknown
6:14 PM 26.2 °F 19.6 °F 19.4 °F 75% 30.26 in 10.0 mi North 5.8 mph - N/A   Unknown
6:34 PM 26.1 °F 20.5 °F 19.2 °F 75% 30.27 in 10.0 mi NNW 4.6 mph - N/A   Unknown
6:54 PM 25.7 °F 21.5 °F 19.4 °F 77% 30.28 in 10.0 mi North 3.5 mph - N/A   Unknown
7:13 PM 25.9 °F - 19.4 °F 76% 30.29 in 10.0 mi Calm Calm - N/A   Unknown
7:34 PM 25.7 °F 21.5 °F 18.3 °F 74% 30.29 in 10.0 mi NNW 3.5 mph - N/A   Unknown
7:54 PM 25.7 °F 20.1 °F 18.5 °F 74% 30.29 in 10.0 mi North 4.6 mph - N/A   Unknown
8:14 PM 25.5 °F 19.9 °F 19.4 °F 78% 30.30 in 10.0 mi NNE 4.6 mph - N/A   Unknown
8:34 PM 25.5 °F - 19.2 °F 77% 30.31 in 10.0 mi Calm Calm - N/A   Unknown
8:54 PM 25.3 °F 21.1 °F 18.7 °F 76% 30.31 in 10.0 mi North 3.5 mph - N/A   Unknown
9:14 PM 25.2 °F 19.5 °F 18.5 °F 76% 30.31 in 10.0 mi North 4.6 mph - N/A   Unknown
9:34 PM 25.2 °F 20.9 °F 18.7 °F 76% 30.32 in 10.0 mi NNW 3.5 mph - N/A   Unknown
9:54 PM 24.8 °F 17.9 °F 18.9 °F 78% 30.33 in 10.0 mi West 5.8 mph - N/A   Unknown
10:13 PM 24.6 °F 17.7 °F 18.7 °F 78% 30.33 in 10.0 mi WNW 5.8 mph - N/A   Unknown
10:34 PM 24.6 °F 17.7 °F 18.5 °F 78% 30.33 in 10.0 mi WNW 5.8 mph - N/A   Unknown
10:54 PM 24.3 °F 17.3 °F 18.5 °F 79% 30.33 in 10.0 mi NW 5.8 mph - N/A   Unknown
11:14 PM 24.3 °F 18.4 °F 18.3 °F 78% 30.34 in 10.0 mi WNW 4.6 mph - N/A   Unknown
11:54 PM 23.7 °F 16.6 °F 17.6 °F 77% 30.34 in 10.0 mi NW 5.8 mph - N/A   Unknown